Regional Weather Roundup
Issued by NWS

Home | Current Version | Previous Version | Graphics & Text | Print | Product List | Glossary On
Versions: 1 2 3 4 5 6 7 8 9 10 11 12 13 14 15 16 17 18 19 20 21 22 23 24 25 26 27 28
000
ASUS45 KBOI 201910
RWRID

IDAHO REGIONAL WEATHER ROUNDUP
NATIONAL WEATHER SERVICE BOISE ID
1200 PM MST MON FEB 20 2017

NOTE: "FAIR" INDICATES FEW OR NO CLOUDS BELOW 12000 FEET
WITH NO SIGNIFICANT WEATHER AND/OR OBSTRUCTIONS TO VISIBILITY

IDZ012-014-202000-
SOUTHWEST IDAHO


CITY           SKY/WX    TMP DP  RH WIND       PRES   REMARKS
BOISE          CLOUDY    53  39  59 S17       29.77R
CALDWELL       CLOUDY    59  40  49 S17G26    29.72F
MOUNTAIN HOME  CLOUDY    52  40  64 S22G29    29.80S
$$

IDZ016-017-202000-
SOUTHCENTRAL IDAHO


CITY           SKY/WX    TMP DP  RH WIND       PRES   REMARKS
BURLEY         CLOUDY    50  34  54 SW17      29.89R
JEROME           N/A    N/A N/A N/A MISG      29.84F
TWIN FALLS     CLOUDY    49  34  56 S25G38    29.85S
$$

IDZ019>023-202000-
SOUTHEAST IDAHO


CITY           SKY/WX    TMP DP  RH WIND       PRES   REMARKS
IDAHO FALLS    CLOUDY    42  36  79 S17       29.92F
POCATELLO      LGT RAIN  44  36  73 S26G39    29.95R
REXBURG        CLOUDY    43  35  73 S21G26    29.90F
$$

IDZ006-010-011-018-031-032-202000-
CENTRAL IDAHO MOUNTAINS


CITY           SKY/WX    TMP DP  RH WIND       PRES   REMARKS
MCCALL         LGT RAIN  39  33  79 S17G26    29.68R WCI  30
HAILEY         LGT SNOW  34  34 100 SE13      29.90R WCI  25
STANLEY          N/A     35  33  92 SE9       29.76R WCI  28
SALMON         CLOUDY    39  32  75 SW14      29.71S WCI  31
CHALLIS        CLOUDY    34  32  92 NE13      29.71F WCI  25
$$

IDZ002-004-006-007-026-202000-
NORTHERN IDAHO


CITY           SKY/WX    TMP DP  RH WIND       PRES   REMARKS
LEWISTON       PTSUNNY   45  41  86 N5        29.57F
LOWELL           N/A     38  35  89 N6        29.65R WCI  33
COEUR D`ALENE  LGT RAIN  35  34  96 N7        29.56S WCI  29
MULLAN PASS    SNOW      29  28  96 S9G16     29.51S VSB 1/2 WCI  20
$$




USA.gov is the U.S. government's official web portal to all federal, state and local government web resources and services.